This is the latest recevied weather packets stored in our database for station/object HG8LXL-2. If no packets are shown the sender has not sent any weather packets the latest 10 day(s).
| Time | Temp. | Humidity | Pressure | Rain* | Wind** | Luminosity | Snow |
|---|---|---|---|---|---|---|---|
| 1777644900 | 22.22° C | 13% | 1021.2 hPa | - | - | - | - |
| 1777644600 | 22.22° C | 13% | 1021.1 hPa | - | - | - | - |
| 1777644300 | 23.33° C | 13% | 1021.1 hPa | - | - | - | - |
| 1777644000 | 23.33° C | 13% | 1021.2 hPa | - | - | - | - |
| 1777643700 | 22.78° C | 13% | 1021.2 hPa | - | - | - | - |
| 1777643400 | 22.78° C | 13% | 1021.2 hPa | - | - | - | - |
| 1777643100 | 22.22° C | 13% | 1021.3 hPa | - | - | - | - |
| 1777642800 | 22.78° C | 13% | 1021.4 hPa | - | - | - | - |
| 1777642500 | 22.22° C | 13% | 1021.4 hPa | - | - | - | - |
| 1777642200 | 22.78° C | 12% | 1021.4 hPa | - | - | - | - |
| 1777641900 | 23.33° C | 12% | 1021.4 hPa | - | - | - | - |
| 1777641600 | 22.22° C | 13% | 1021.4 hPa | - | - | - | - |
| 1777641300 | 22.22° C | 13% | 1021.5 hPa | - | - | - | - |
| 1777641000 | 21.67° C | 13% | 1021.6 hPa | - | - | - | - |
| 1777640700 | 22.78° C | 13% | 1021.7 hPa | - | - | - | - |
| 1777640400 | 22.78° C | 12% | 1021.7 hPa | - | - | - | - |
| 1777640100 | 22.78° C | 12% | 1021.7 hPa | - | - | - | - |
| 1777639801 | 22.78° C | 13% | 1021.9 hPa | - | - | - | - |
| 1777639500 | 22.22° C | 13% | 1021.9 hPa | - | - | - | - |
| 1777639200 | 22.78° C | 13% | 1021.9 hPa | - | - | - | - |
| 1777638900 | 21.67° C | 14% | 1022.1 hPa | - | - | - | - |
| 1777638600 | 23.33° C | 12% | 1021.9 hPa | - | - | - | - |
| 1777638300 | 22.78° C | 13% | 1022.1 hPa | - | - | - | - |
| 1777638000 | 23.33° C | 13% | 1022.1 hPa | - | - | - | - |
| 1777637700 | 22.22° C | 13% | 1022.1 hPa | - | - | - | - |
* Rain since midnight (hover to see other rain measurements)
** Current wind speed in m/s (hover to see current wind gust speed)